Pensacola NAS, FL

11:24 PM CDT on May 25, 2017 (GMT -0500)
Pensacola Naval Air Station

Weather History for KNPA - February, 2014

Change the Weather History Date:

Saturday, February 8, 2014

  Actual Average Record
Temperature  
Mean Temperature 51 °F -  
Max Temperature 59 °F 61 °F 73 °F (2017)
Min Temperature 43 °F 44 °F 30 °F (2006)
Degree Days  
Heating Degree Days 14    
Growing Degree Days 1 (Base 50)    
Moisture  
Dew Point 44 °F    
Average Humidity 84    
Maximum Humidity 97    
Minimum Humidity 55    
Precipitation  
Precipitation 0.02 in - - ()
Sea Level Pressure  
Sea Level Pressure 30.18 in    
Wind  
Wind Speed 5 mph (North)    
Max Wind Speed 9 mph    
Max Gust Speed -    
Visibility 9 miles    
Events Rain    
Averages and records for this station are not official NWS values.
T = Trace of Precipitation, MM = Missing Value Source: NWS Daily Summary

Daily Weather History Graph

Daily Weather History Graph

Search for Another Location

Airport or City:

Trip Planner

Search our weather history database for the weather conditions in past years. The results will help you decide how hot, cold, wet, or windy it might be!

Date:

Astronomy

Feb. 08, 2014 Rise Set
Actual Time 6:35 AM CST 5:32 PM CST
Civil Twilight 6:10 AM CST 5:56 PM CST
Nautical Twilight 5:42 AM CST 6:25 PM CST
Astronomical Twilight 5:13 AM CST 6:53 PM CST
Moon 12:32 PM CST (2/8) 1:41 AM CST (2/8)
Length of Visible Light 11h 46m
Length of Day
10h 56m
Waxing Gibbous, 69% of the Moon is Illuminated
Feb 8
Waxing Gibbous
Feb 14
Full
Feb 22
Last Quarter
Mar 1
New
Mar 8
First Quarter

Hourly Weather History & Observations

Time (CST) Temp. Windchill Dew Point Humidity Pressure Visibility Wind Dir Wind Speed Gust Speed Precip Events Conditions
12:56 AM 46.0 °F 44.8 °F 42.1 °F 86% 30.21 in 10.0 mi North 3.5 mph - 0.00 in Rain Light Rain
1:56 AM 45.0 °F 41.2 °F 43.0 °F 93% 30.17 in 9.0 mi NE 6.9 mph - 0.01 in Rain Light Rain
2:56 AM 45.0 °F 42.6 °F 43.0 °F 93% 30.19 in 8.0 mi North 4.6 mph - 0.01 in Rain Light Rain
3:56 AM 44.1 °F 42.5 °F 43.0 °F 96% 30.19 in 6.0 mi North 3.5 mph - 0.00 in Rain Light Rain
4:56 AM 44.1 °F 40.8 °F 43.0 °F 96% 30.20 in 10.0 mi North 5.8 mph - N/A Rain Light Rain
5:56 AM 44.1 °F 40.8 °F 42.1 °F 93% 30.21 in 9.0 mi North 5.8 mph - N/A   Mostly Cloudy
6:56 AM 43.0 °F 40.3 °F 42.1 °F 97% 30.22 in 8.0 mi North 4.6 mph - N/A   Mostly Cloudy
8:01 AM 46.0 °F 43.9 °F 42.1 °F 86% 30.23 in 10.0 mi NNE 4.6 mph - N/A   Scattered Clouds
8:56 AM 48.9 °F - 44.1 °F 83% 30.24 in 10.0 mi NNE 4.6 mph - N/A   Partly Cloudy
9:56 AM 52.0 °F - 46.0 °F 80% 30.23 in 10.0 mi ENE 6.9 mph - N/A   Clear
10:56 AM 55.0 °F - 46.0 °F 72% 30.24 in 10.0 mi Variable 3.5 mph - N/A   Partly Cloudy
11:56 AM 55.0 °F - 46.9 °F 74% 30.19 in 10.0 mi SE 5.8 mph - N/A   Partly Cloudy
12:56 PM 57.9 °F - 46.9 °F 67% 30.16 in 10.0 mi Variable 3.5 mph - N/A   Scattered Clouds
1:56 PM 59.0 °F - 46.9 °F 64% 30.15 in 10.0 mi ENE 3.5 mph - N/A   Scattered Clouds
2:56 PM 59.0 °F - 43.0 °F 55% 30.14 in 10.0 mi South 9.2 mph - N/A   Scattered Clouds
3:56 PM 57.0 °F - 45.0 °F 64% 30.14 in 10.0 mi SSW 9.2 mph - N/A   Scattered Clouds
4:56 PM 55.0 °F - 46.0 °F 72% 30.14 in 10.0 mi SW 6.9 mph - N/A   Scattered Clouds
5:30 PM 52.0 °F - 46.0 °F 80% 30.13 in 10.0 mi SSW 4.6 mph - N/A   Scattered Clouds
5:56 PM 51.1 °F - 46.0 °F 83% 30.14 in 10.0 mi SW 4.6 mph - N/A   Clear
6:56 PM 48.9 °F - 46.0 °F 90% 30.15 in 10.0 mi SW 3.5 mph - N/A   Clear
7:56 PM 46.9 °F - 45.0 °F 93% 30.16 in 10.0 mi Calm Calm - N/A   Clear
8:56 PM 44.1 °F - 43.0 °F 96% 30.16 in 10.0 mi Calm Calm - N/A   Clear
9:56 PM 43.0 °F - 42.1 °F 97% 30.16 in 5.0 mi Calm Calm - 0.00 in   Clear
10:56 PM 46.0 °F 43.1 °F 45.0 °F 96% 30.16 in 10.0 mi NW 5.8 mph - 0.00 in   Clear
11:56 PM 45.0 °F 41.8 °F 43.0 °F 93% 30.15 in 9.0 mi NNW 5.8 mph - N/A   Clear